Location: Del Amo
(33.8464°N, 118.2104°W)
Time: 00:02:03
(UTC+00:00)

Explorer 11/Cluster Stage 4 - All Passes

Search period start: 12 September 2024 00:00
Search period end: 22 September 2024 00:00
Orbit: 464 x 1209 km, 28.8° (Epoch: 11 September)

Date Brightness Start Highest point End Pass type
(mag) Time Alt. Az. Time Alt. Az. Time Alt. Az.
12 Sep - 13:05:09 10° S 13:08:31 14° SE 13:12:08 10° ESE visible
12 Sep - 14:49:36 10° SW 14:56:04 37° SSE 15:03:12 10° E daylight
12 Sep - 16:36:52 10° WSW 16:44:23 58° S 16:52:10 10° E daylight
12 Sep - 18:25:10 10° W 18:32:56 57° S 18:40:24 10° ESE daylight
12 Sep - 20:14:13 10° W 20:21:11 35° SSW 20:27:31 10° SE daylight
12 Sep - 22:05:53 10° WSW 22:08:40 12° SW 22:11:19 10° SSW daylight
13 Sep - 12:45:57 10° S 12:49:20 15° SE 12:52:58 10° ESE visible
13 Sep - 14:30:30 10° SW 14:36:50 38° SSE 14:43:54 10° E daylight
13 Sep - 16:17:44 10° WSW 16:25:05 59° S 16:32:55 10° E daylight
13 Sep - 18:05:58 10° W 18:13:40 56° S 18:21:14 10° ESE daylight
13 Sep - 19:54:57 10° W 20:01:55 34° SSW 20:08:22 10° SE daylight
13 Sep - 21:46:50 10° SW 21:49:27 12° SW 21:51:58 10° SSW daylight
14 Sep - 12:26:50 10° S 12:30:09 15° SSE 12:33:45 10° ESE visible
14 Sep - 14:11:28 10° SW 14:17:35 39° SSE 14:24:35 10° E daylight
14 Sep - 15:58:38 10° WSW 16:05:48 59° S 16:13:38 10° E daylight
14 Sep - 17:46:46 10° W 17:54:22 55° S 18:02:01 10° ESE daylight
14 Sep - 19:35:43 10° W 19:42:37 33° SSW 19:49:10 10° SE daylight
14 Sep - 21:27:51 10° SW 21:30:13 12° SW 21:32:31 10° SSW daylight
15 Sep - 12:07:44 10° S 12:10:58 15° SSE 12:14:30 10° ESE visible
15 Sep - 13:52:27 10° SW 13:58:21 39° SSE 14:05:15 10° E daylight
15 Sep - 15:39:34 10° WSW 15:46:32 59° S 15:54:18 10° E daylight
15 Sep - 17:27:37 10° W 17:35:02 54° S 17:42:45 10° ESE daylight
15 Sep - 19:16:30 10° W 19:23:18 32° SSW 19:29:55 10° SE daylight
15 Sep - 21:09:02 10° SW 21:10:57 11° SW 21:12:51 10° SSW daylight
16 Sep - 11:48:41 10° S 11:51:48 15° SSE 11:55:15 10° ESE visible
16 Sep - 13:33:27 10° SW 13:39:08 39° SSE 13:45:52 10° E daylight
16 Sep - 15:20:32 10° WSW 15:27:16 59° S 15:34:57 10° E daylight
16 Sep - 17:08:29 10° W 17:15:44 52° S 17:23:26 10° ESE daylight
16 Sep - 18:57:20 10° W 19:03:59 30° SSW 19:10:34 10° SSE daylight
16 Sep - 20:50:31 10° SW 20:51:40 10° SW 20:52:48 10° SSW daylight
17 Sep - 11:29:40 10° S 11:32:40 15° SSE 11:35:58 10° ESE visible
17 Sep - 13:14:30 10° SW 13:19:56 40° SSE 13:26:28 10° E visible
17 Sep - 15:01:32 10° WSW 15:08:00 58° S 15:15:34 10° E daylight
17 Sep - 16:49:23 10° W 16:56:25 51° SSW 17:04:04 10° ESE daylight
17 Sep - 18:38:11 10° W 18:44:39 29° SSW 18:51:11 10° SSE daylight
18 Sep - 11:10:40 10° S 11:13:32 15° SSE 11:16:42 10° ESE visible
18 Sep - 12:55:34 10° SW 13:00:46 40° SSE 13:07:04 10° E visible
18 Sep - 14:42:32 10° WSW 14:48:45 58° S 14:56:08 10° ESE daylight
18 Sep - 16:30:19 10° W 16:37:06 49° SSW 16:44:39 10° ESE daylight
18 Sep - 18:19:05 10° WSW 18:25:18 27° SSW 18:31:43 10° SSE daylight
19 Sep - 10:51:42 10° S 10:54:25 15° SSE 10:57:26 10° ESE visible
19 Sep - 12:36:39 10° SW 12:41:36 40° SSE 12:47:39 10° E visible
19 Sep - 14:23:36 10° WSW 14:29:32 57° S 14:36:42 10° ESE daylight
19 Sep - 16:11:17 10° W 16:17:48 47° SSW 16:25:11 10° ESE daylight
19 Sep - 18:00:01 10° WSW 18:05:58 25° SSW 18:12:11 10° SSE daylight
20 Sep - 10:32:43 10° S 10:35:19 15° SSE 10:38:10 10° ESE visible
20 Sep - 12:17:45 10° SW 12:22:28 40° SSE 12:28:15 10° E visible
20 Sep - 14:04:39 10° WSW 14:10:19 55° S 14:17:14 10° ESE daylight
20 Sep - 15:52:17 10° W 15:58:31 44° SSW 16:05:42 10° SE daylight
20 Sep - 17:41:01 10° WSW 17:46:38 24° SSW 17:52:36 10° SSE daylight
21 Sep - 10:13:45 10° S 10:16:13 15° SSE 10:18:55 10° ESE visible
21 Sep - 11:58:51 10° SW 12:03:21 39° SSE 12:08:51 10° E visible
21 Sep - 13:45:45 10° WSW 13:51:08 54° S 13:57:46 10° ESE daylight
21 Sep - 15:33:19 10° W 15:39:13 42° SSW 15:46:11 10° SE daylight
21 Sep - 17:22:05 10° WSW 17:27:18 22° SSW 17:32:56 10° SSE daylight
